Overview Statistics Trail Chart Weather Telemetry Raw packets
 

This is the latest recevied weather packets stored in our database for station/object WA6OOO. If no packets are shown the sender has not sent any weather packets the latest 10 day(s).

<< 55 56 57 58 59 60 61 >>
Time Temp. Humidity Pressure Rain* Wind** Luminosity Snow
1788302216 24.44° C 61% 1017.9 hPa 0 mm - 484 W/m² -
1788301911 24.44° C 62% 1017.9 hPa 0 mm - 502 W/m² -
1788301607 23.89° C 61% 1018.1 hPa 0 mm - 517 W/m² -
1788301303 24.44° C 61% 1018 hPa 0 mm - 531 W/m² -
1788300999 24.44° C 61% 1018.1 hPa 0 mm - 542 W/m² -
1788300695 23.89° C 66% 1018 hPa 0 mm - 552 W/m² -
1788300393 23.89° C 64% 1018.3 hPa 0 mm - 565 W/m² -
1788300093 24.44° C 62% 1018.3 hPa 0 mm - 576 W/m² -
1788299791 24.44° C 61% 1018.2 hPa 0 mm - 585 W/m² -
1788299487 23.89° C 62% 1018.3 hPa 0 mm - 600 W/m² -
1788299184 23.33° C 65% 1018.5 hPa 0 mm - 603 W/m² -
1788298879 23.33° C 66% 1018.5 hPa 0 mm - 617 W/m² -
1788298579 23.33° C 65% 1018.4 hPa 0 mm - 626 W/m² -
1788298273 23.89° C 64% 1018.5 hPa 0 mm - 639 W/m² -
1788297973 23.89° C 64% 1018.5 hPa 0 mm - 646 W/m² -
1788297679 23.89° C 64% 1018.6 hPa 0 mm - 655 W/m² -
1788297364 23.33° C 65% 1018.6 hPa 0 mm - 662 W/m² -
1788297061 23.89° C 64% 1018.8 hPa 0 mm - 673 W/m² -
1788296755 23.89° C 65% 1018.7 hPa 0 mm - 677 W/m² -
1788296452 23.33° C 66% 1018.8 hPa 0 mm - 684 W/m² -
1788296148 23.89° C 65% 1018.7 hPa 0 mm - 690 W/m² -
1788295847 23.89° C 64% 1018.6 hPa 0 mm - 693 W/m² -
1788295544 23.89° C 64% 1018.8 hPa 0 mm - 699 W/m² -
1788295239 23.89° C 63% 1018.9 hPa 0 mm - 705 W/m² -
1788294938 23.89° C 63% 1018.5 hPa 0 mm - 707 W/m² -

* Rain latest hour (hover to see other rain measurements)
** Current wind speed in m/s (hover to see current wind gust speed)